Weather in Severnoye

Russia / Kostroma Oblast     58°02′00″N   41°26′01″E
temp.,
°C
wind,
m/s
gust,
m/s
humid.,
%
clouds,
%
prec.,
mm/h
press.,
hPa
HPBL,
m
26 may, thu
thu2600:00+3w279399 0.0 1010153
03:00+1w2595100 0.0 1009104
06:00+3w259175 0.0 1008142
09:00+9wsw35668 0.0 10071102
12:00+11w345021 0.1 10071420
15:00+13sw3445100 0.1 10051869
18:00+11sw35625 0.1 1004854
21:00+5sse23935 0.1 100341
27 may, fri
fri2700:00+5ese259455 0.0 100193
03:00+6ese3795100 0.0 1000179
06:00+7se3791100 0.0 998221
09:00+10se2382100 0.0 997340
12:00+14nw2171100 0.4 997694
15:00+13ssw1180100 2.3 997138
18:00+10se3697100 1.8 998216
21:00+9s2499100 3.1 998153
28 may, sat
sat2800:00+9ssw2499100 3.4 997130
03:00+8sw2599100 6.0 997199
06:00+8sw259634 0.3 997219
09:00+12ssw34744 0.4 997676
12:00+15s455298 0.2 9961728
15:00+9wsw4995100 3.4 998775
18:00+10wsw599060 1.1 998956
21:00+7sw4109581 1.4 1000573
29 may, sun
sun2900:00+6sw4897100 0.3 1001587
03:00+7wsw31099100 4.3 1002788
06:00+7sw51097100 1.0 1005552
09:00+10sw478275 1.0 1007846
12:00+13wsw5660100 0.3 10081654
15:00+14sw465699 0.8 10091677
18:00+12sw36824 0.9 1012815
21:00+8s25945 1.2 101478
30 may, mon
mon3000:00+7ssw26965 0.0 1016109
03:00+6ssw27965 0.0 1017142
06:00+9ssw279388 0.0 1018216
09:00+14sw476986 0.0 1019807
12:00+17sw465691 0.3 10201530
15:00+18sw465653 0.6 10191613
18:00+15sw2680100 1.0 1020200
21:00+12sw2288100 1.1 102125